Location: Lecco
(45.8566°N, 9.3977°E)
Time: 04:48:30
(UTC+02:00)

Transit 4A - Pass Details

Date: 17 August 2020
Orbit: 863 x 982 km, 66.8° (Epoch: 23 September)

Event Time Altitude Azimuth Distance (km) Brightness Sun altitude
Rises 12:06:15 0° 285° (WNW) 3,560 10.7 53.2°
Reaches altitude 10° 12:10:17 10° 311° (NW) 2,649 10.1 53.6°
Maximum altitude 12:13:15 14° 340° (NNW) 2,415 9.9 53.9°
Drops below altitude 10° 12:16:15 10° 9° (N) 2,690 10.2 54.1°
Sets 12:20:26 0° 35° (NE) 3,661 10.9 54.5°
